TimeCDT,TemperatureF,Dew PointF,Humidity,Sea Level PressureIn,VisibilityMPH,Wind Direction,Wind SpeedMPH,Gust SpeedMPH,PrecipitationIn,Events,Conditions,WindDirDegrees,DateUTC
12:53 AM,62.1,59.0,90,29.93,10.0,East,5.8,-,N/A,,Mostly Cloudy,90,2013-03-10 06:53:00
1:53 AM,62.1,59.0,90,29.93,10.0,East,3.5,-,N/A,,Overcast,90,2013-03-10 07:53:00
3:53 AM,61.0,57.9,90,29.91,10.0,Calm,Calm,-,N/A,,Mostly Cloudy,0,2013-03-10 08:53:00
4:24 AM,60.8,59.0,94,29.91,10.0,Calm,Calm,-,N/A,,Overcast,0,2013-03-10 09:24:00
4:53 AM,60.1,57.9,93,29.91,9.0,ENE,5.8,-,N/A,,Overcast,70,2013-03-10 09:53:00
5:53 AM,61.0,59.0,93,29.90,9.0,East,6.9,-,N/A,,Overcast,100,2013-03-10 10:53:00
6:50 AM,60.8,59.0,94,29.88,9.0,ESE,11.5,-,N/A,,Mostly Cloudy,110,2013-03-10 11:50:00
6:53 AM,60.8,59.0,94,29.88,9.0,ESE,11.5,-,N/A,,Mostly Cloudy,110,2013-03-10 11:53:00
7:48 AM,60.8,59.0,94,29.89,7.0,ESE,6.9,-,N/A,,Overcast,120,2013-03-10 12:48:00
7:53 AM,61.0,59.0,93,29.89,7.0,ESE,6.9,-,N/A,,Overcast,110,2013-03-10 12:53:00
8:53 AM,64.0,61.0,90,29.92,9.0,ESE,9.2,-,N/A,,Overcast,120,2013-03-10 13:53:00
9:36 AM,66.2,62.6,88,29.94,10.0,SE,8.1,-,N/A,,Overcast,140,2013-03-10 14:36:00
9:48 AM,68.0,62.6,83,29.95,10.0,SE,6.9,-,N/A,,Overcast,140,2013-03-10 14:48:00
9:53 AM,68.0,62.1,81,29.95,10.0,SE,6.9,-,N/A,,Overcast,140,2013-03-10 14:53:00
10:53 AM,72.0,63.0,73,29.95,10.0,South,13.8,27.6,0.00,,Overcast,170,2013-03-10 15:53:00
11:53 AM,75.9,62.1,62,29.93,10.0,South,25.3,34.5,N/A,,Scattered Clouds,170,2013-03-10 16:53:00
12:53 PM,78.1,61.0,56,29.91,10.0,South,28.8,39.1,N/A,,Clear,170,2013-03-10 17:53:00
1:53 PM,79.0,57.9,48,29.88,10.0,South,32.2,42.6,N/A,,Scattered Clouds,180,2013-03-10 18:53:00
2:53 PM,78.1,59.0,52,29.86,10.0,South,25.3,39.1,N/A,,Mostly Cloudy,180,2013-03-10 19:53:00
3:53 PM,75.0,59.0,57,29.86,10.0,South,25.3,33.4,N/A,,Overcast,180,2013-03-10 20:53:00
4:53 PM,73.9,59.0,59,29.84,10.0,South,19.6,29.9,N/A,,Overcast,170,2013-03-10 21:53:00
5:53 PM,73.9,57.9,57,29.83,10.0,South,18.4,31.1,N/A,,Overcast,180,2013-03-10 22:53:00
6:53 PM,73.0,59.0,61,29.85,10.0,South,15.0,23.0,N/A,,Overcast,190,2013-03-10 23:53:00
7:53 PM,72.0,60.1,66,29.86,10.0,South,11.5,-,N/A,,Overcast,180,2013-03-11 00:53:00
8:53 PM,66.0,61.0,84,29.86,10.0,West,4.6,-,0.00,,Overcast,280,2013-03-11 01:53:00
9:43 PM,60.8,57.2,88,29.89,8.0,WNW,8.1,-,N/A,,Overcast,290,2013-03-11 02:43:00
9:53 PM,59.0,57.9,96,29.88,7.0,NW,5.8,-,0.00,Rain,Light Rain,310,2013-03-11 02:53:00
10:53 PM,57.9,55.9,93,29.90,10.0,NW,5.8,-,0.00,,Overcast,320,2013-03-11 03:53:00
11:20 PM,57.2,55.4,94,29.93,10.0,West,6.9,-,0.00,Rain,Light Rain,270,2013-03-11 04:20:00
11:53 PM,55.0,54.0,96,29.96,8.0,WNW,12.7,18.4,0.05,Rain,Rain,290,2013-03-11 04:53:00
12:08 AM,55.4,53.6,94,29.96,3.0,NW,8.1,-,0.07,Rain,Heavy Rain,310,2013-03-11 05:08:00
12:21 AM,53.6,53.6,100,29.96,2.5,NNW,8.1,18.4,0.18,Rain,Heavy Rain,330,2013-03-11 05:21:00
12:31 AM,53.6,53.6,100,29.93,3.0,NNW,11.5,18.4,0.23,Rain,Heavy Rain,340,2013-03-11 05:31:00
12:49 AM,53.6,53.6,100,29.95,4.0,Variable,3.5,-,0.33,Rain,Heavy Rain,0,2013-03-11 05:49:00
12:53 AM,54.0,53.1,97,29.95,3.0,NNW,5.8,-,0.34,Rain,Rain,340,2013-03-11 05:53:00
12:56 AM,53.6,53.6,100,29.95,3.0,WNW,4.6,-,0.04,Rain,Heavy Rain,300,2013-03-11 05:56:00